Location: Ermatingen
(47.6706°N, 9.0857°E)
Time: 00:43:48
(UTC+00:00)

Cosmos 1428 Rocket - Pass Details

Date: 28 November 2021
Orbit: 949 x 987 km, 82.9° (Epoch: 17 January)

Event Time Altitude Azimuth Distance (km) Brightness Sun altitude
Rises 16:18:23 0° 358° (N) 3,633 7.3 -7.2°
Reaches altitude 10° 16:21:21 10° 11° (NNE) 2,684 6.5 -7.7°
Maximum altitude 16:26:24 26° 67° (ENE) 1,783 5.3 -8.4°
Drops below altitude 10° 16:31:25 10° 122° (ESE) 2,679 6.5 -9.2°
Sets 16:34:21 0° 135° (SE) 3,625 7.2 -9.7°
